134  
NZUS52 KFFC 170010  
RWROBS  
WEATHER ROUNDUP FOR GEORGIA  
NATIONAL WEATHER SERVICE PEACHTREE CITY GA  
700 PM EST WED JAN 16 2019  
 
NOTE: "FAIR" INDICATES FEW OR NO CLOUDS BELOW 12,000 FEET WITH NO  
SIGNIFICANT WEATHER AND/OR S TO VISIBILITY
.  
 
* = USE WITH CAUTION. THE STATIONS MARKED WITH AN ASTERISK MAY NOT  
REPORT WEATHER SUCH AS PRECIPITATION, FOG, OR THUNDER AND ARE NOT  
QUALITY CONTROLLED BY NWS.  
 
THE REMARK "TC" DENOTES TEMPERATURE READING IN DEGREES CELSIUS.  
 
GAZ001>058-170100-  
NORTH GEORGIA  
 
CITY SKY/WX TMP DP RH WIND PRES REMARKS
 
ATLANTA FAIR 47 30 51 N6 30.25R  
6HR MIN TEMP: 47; 6HR MAX TEMP: 53;  
 
ATHENS FAIR 49 31 49 W6 30.21R  
6HR MIN TEMP: 49; 6HR MAX TEMP: 59;  
 
CHAMBLEE FAIR 43 33 68 W6 30.24R WCI 39  
6HR MIN TEMP: 43; 6HR MAX TEMP: 52;  
 
PEACHTREE CITY FAIR 43 37 79 CALM 30.25R  
6HR MIN TEMP: 43; 6HR MAX TEMP: 58;  
 
ROME FAIR 43 33 68 NE7 30.26R WCI 39  
6HR MIN TEMP: 43; 6HR MAX TEMP: 52;  
 
WEST ATLANTA FAIR 45 34 65 CALM 30.25R  
6HR MIN TEMP: 44; 6HR MAX TEMP: 53;  
 
GAINESVILLE FAIR 43 35 73 W8 30.23R WCI 38  
6HR MIN TEMP: 42; 6HR MAX TEMP: 53;  
 
CARTERSVILLE FAIR 38 34 85 CALM 30.27R  
6HR MIN TEMP: 38; 6HR MAX TEMP: 50;  
 
BLAIRSVILLE FAIR 38 33 80 NW3 30.24S  
6HR MIN TEMP: 38; 6HR MAX TEMP: 47;  
 
DECATUR FAIR 43 34 70 E3 30.25S  
6HR MIN TEMP: 43; 6HR MAX TEMP: 52;  
 
CLEMSON FAIR 50 35 56 S3 30.19R  
6HR MIN TEMP: 50; 6HR MAX TEMP: 57;  
 
GREENVILLE FAIR 48 31 51 S5 30.19R  
6HR MIN TEMP: 45; 6HR MAX TEMP: 58;  
 
FLORENCE NOT AVBL  
CHARLESTON FAIR 45 38 76 SW7 30.23R  
6HR MIN TEMP: 45; 6HR MAX TEMP: 60;  
 
MYRTLE BEACH FAIR 47 43 86 CALM 30.24R  
6HR MIN TEMP: 46; 6HR MAX TEMP: 56;  
 
FAYETTEVILLE FAIR 44 35 70 CALM 30.20R  
6HR MIN TEMP: 44; 6HR MAX TEMP: 58;  
 
WILMINGTON FAIR 46 37 71 SW6 30.22R  
6HR MIN TEMP: 44; 6HR MAX TEMP: 57;  
 
RALEIGH FAIR 42 32 67 CALM 30.20R  
6HR MIN TEMP: 42; 6HR MAX TEMP: 54;  
 
DALTON FAIR 37 34 87 NW3 30.29R  
LAWRENCEVILLE FAIR 46 35 65 W5 30.23R  
6HR MIN TEMP: 45; 6HR MAX TEMP: 55;  
 
MARIETTA PTCLDY 41 32 69 W5 30.24R WCI 38  
6HR MIN TEMP: 41; 6HR MAX TEMP: 51;  
 
KENNESAW FAIR 44 34 67 VRB3 30.26R  
6HR MIN TEMP: 41; 6HR MAX TEMP: 48;  
 
WINDER FAIR 48 34 57 W7 30.25R  
CANTON FAIR 43 32 65 W5 30.25S  
TOCCOA FAIR 50 32 48 NW6 30.19R  
6HR MIN TEMP: 50; 6HR MAX TEMP: 62;  
 
CORNELIA FAIR 47 32 56 NW7 30.19S  
6HR MIN TEMP: 47; 6HR MAX TEMP: 56;  
 
JASPER FAIR 37 33 84 N5 30.26S WCI 34  
6HR MIN TEMP: 37; 6HR MAX TEMP: 46;  
 
CHARLOTTE FAIR 48 31 51 S6 30.21R  
6HR MIN TEMP: 48; 6HR MAX TEMP: 57;  
 

 
 
GAZ059>098-102>109-170100-  
OTHER STATIONS  
 
CITY SKY/WX TMP DP RH WIND PRES REMARKS
 
AUGUSTA-BUSH FAIR 45 36 70 CALM 30.21S  
6HR MIN TEMP: 44; 6HR MAX TEMP: 61;  
 
AUGUSTA-DANIEL FAIR 52 34 50 CALM 30.22R  
6HR MIN TEMP: 52; 6HR MAX TEMP: 60;  
 
COLUMBUS FAIR 54 36 50 CALM 30.25R  
6HR MIN TEMP: 53; 6HR MAX TEMP: 61;  
 
MACON FAIR 50 35 56 W3 30.24R  
6HR MIN TEMP: 49; 6HR MAX TEMP: 62;  
 
ROBINS AFB FAIR 50 35 56 W3 30.24R  
6HR MIN TEMP: 49; 6HR MAX TEMP: 62;  
 
GREENSBORO FAIR 52 34 50 W5 30.19R  
THOMSON FAIR 43 38 84 CALM 30.26R  
6HR MIN TEMP: 42; 6HR MAX TEMP: 60;  
 
SANDERSVILLE NOT AVBL  
THOMASTON FAIR 46 32 57 NW3 30.26R  
BUTLER NOT AVBL  
LAGRANGE FAIR 44 37 74 CALM 30.25S  
6HR MIN TEMP: 43; 6HR MAX TEMP: 59;  
 
MILLEDGEVILLE FAIR 46 36 66 W3 30.24R  
CARROLLTON FAIR 42 33 72 CALM 30.28R  
AMERICUS FAIR 48 41 76 CALM 30.27R  
CORDELE FAIR 46 38 75 CALM 30.27R  
6HR MIN TEMP: 45; 6HR MAX TEMP: 58;  
 
SAVANNAH FAIR 47 36 65 CALM 30.24R  
6HR MIN TEMP: 47; 6HR MAX TEMP: 60;  
 
NEW BERN FAIR 41 36 82 CALM 30.21R  
6HR MIN TEMP: 38; 6HR MAX TEMP: 55;  
 
HUNTSVILLE FAIR 45 32 60 E3 30.23F  
6HR MIN TEMP: 45; 6HR MAX TEMP: 52;  
 

 
 
GAZ099>101-110>166-170100-  
OTHER STATIONS  
 
CITY SKY/WX TMP DP RH WIND PRES REMARKS
 
VALDOSTA FAIR 43 36 76 CALM 30.26R  
6HR MIN TEMP: 43; 6HR MAX TEMP: 60;  
 
ALMA FAIR 44 38 79 CALM 30.24R  
6HR MIN TEMP: 44; 6HR MAX TEMP: 61;  
 
ST SIMONS FAIR 50 43 77 CALM 30.24R  
6HR MIN TEMP: 50; 6HR MAX TEMP: 61;  
 
FT STEWART FAIR 46 38 75 CALM 30.22R  
6HR MIN TEMP: 46; 6HR MAX TEMP: 60;  
 
ALBANY FAIR 47 37 68 CALM 30.28R  
6HR MIN TEMP: 47; 6HR MAX TEMP: 61;  
 
HUNTER AFB FAIR 47 34 61 W6 30.21R  
6HR MIN TEMP: 47; 6HR MAX TEMP: 60;  
 
MOODY AFB FAIR 48 38 68 CALM 30.24R  
6HR MIN TEMP: 47; 6HR MAX TEMP: 60;  
 
BRUNSWICK FAIR 45 37 76 CALM 30.25R  
BAINBRIDGE N/A 48 37 66 MISG 30.27R  
MOULTRIE FAIR 46 39 76 CALM 30.26R  
VIDALIA FAIR 48 36 61 CALM 30.24R  
WAYCROSS FAIR 46 35 67 CALM 30.25R  
6HR MIN TEMP: 46; 6HR MAX TEMP: 60;  
 
DOUGLAS FAIR 47 37 68 CALM 30.26R  
TIFTON FAIR 46 36 68 CALM 30.24S  
HAZELHURST FAIR 48 39 72 CALM 30.24R  
6HR MIN TEMP: 48; 6HR MAX TEMP: 62;  
 
COLUMBIA FAIR 43 39 86 CALM 30.22R  
6HR MIN TEMP: 43; 6HR MAX TEMP: 58;  
 
RALEIGH FAIR 42 32 67 CALM 30.20R  
6HR MIN TEMP: 42; 6HR MAX TEMP: 54;  
 
GREENSBORO FAIR 42 31 64 N6 30.21R WCI 38  
6HR MIN TEMP: 42; 6HR MAX TEMP: 52;  
 
HICKORY FAIR 44 32 62 N6 30.19R  
6HR MIN TEMP: 44; 6HR MAX TEMP: 56;  
 
ASHEVILLE FAIR 36 30 79 N10 30.23R WCI 28  
6HR MIN TEMP: 36; 6HR MAX TEMP: 49;  
 
KNOXVILLE CLOUDY 39 34 82 E7 30.26F WCI 34  
6HR MIN TEMP: 36; 6HR MAX TEMP: 40;  
 
NASHVILLE CLOUDY 46 35 65 S5 30.25R  
6HR MIN TEMP: 43; 6HR MAX TEMP: 47;  
 
JACKSONMS CLOUDY 51 40 65 S5 30.24F  
6HR MIN TEMP: 50; 6HR MAX TEMP: 55;  
 
TUPELO NOT AVBL  
GREENWOOD CLOUDY 50 41 71 S5 30.22F  
6HR MIN TEMP: 50; 6HR MAX TEMP: 55;  
 
MERIDIAN FAIR 47 41 80 CALM 30.25S  
6HR MIN TEMP: 47; 6HR MAX TEMP: 61;  
 
NEW ORLEANS FAIR 50 43 77 CALM 30.28R  
6HR MIN TEMP: 50; 6HR MAX TEMP: 60;  
 

 
 
 
CLICK HERE TO GO TO PREVIOUS BULLETINS.

The Nexlab GA Page Main Text Page